Vorticity
16 16 15 14 11 9 8 8 7 6 5 4 3 3 3 2 2 2 2 3 4 7 7 4 2 2 1 1 5 8 10 10 12 11 4 12 14 4 8 9 10 20 17 5 3 3 4 5 4 3 3 5 4 5 5 1 2 4 3 5 5 4 4 5 9 8 5 8 9 7 6 8 7 4 5 6 9 9 3 3 6 9 9 7 11 10 8 9
11 14 16 17 16 14 12 10 8 8 7 6 4 4 4 3 3 2 2 2 2 4 7 7 3 2 1 1 3 5 9 10 12 11 3 11 18 10 6 3 11 21 14 6 2 4 6 3 3 3 5 5 3 3 5 4 1 1 2 4 5 6 4 5 11 11 6 6 9 7 6 8 7 3 5 7 7 6 4 5 6 8 8 9 11 10 9 9
5 7 10 14 17 18 17 15 12 10 8 8 7 5 4 4 4 3 2 2 2 2 4 8 5 2 2 1 2 3 8 9 9 12 5 5 11 11 6 1 9 18 13 5 1 5 5 3 4 3 4 2 1 3 4 6 2 -3 1 4 4 5 4 6 11 10 6 7 9 7 6 7 6 6 5 6 7 6 7 7 6 7 7 8 10 10 10 8
6 5 5 6 10 13 17 18 18 15 12 10 9 8 6 5 4 4 3 2 2 2 2 5 7 5 2 1 2 1 4 9 8 11 10 6 8 10 7 2 7 16 12 2 4 7 2 3 3 -0 2 1 0 3 3 6 4 -2 2 7 7 3 2 6 7 4 6 10 11 9 7 9 9 10 8 6 7 9 8 7 7 7 6 8 9 10 10 9
7 7 6 5 4 6 9 13 17 19 18 15 12 10 8 7 6 5 4 3 2 2 2 3 5 7 4 1 2 1 2 8 6 10 15 9 8 9 7 6 5 10 10 5 10 8 1 2 1 -1 1 -0 -0 1 -0 3 2 -2 2 6 7 3 0 5 6 4 7 11 13 9 4 9 11 10 10 9 9 9 8 6 6 7 6 7 8 9 9 9
5 6 7 7 6 6 5 6 9 13 18 19 18 14 11 9 8 7 5 5 4 2 2 2 4 5 7 4 1 2 1 5 4 6 13 10 10 11 9 7 3 8 9 7 12 5 -1 3 2 1 1 -1 -0 -2 -4 1 -1 -4 1 2 4 5 2 4 5 4 6 10 14 8 2 7 11 10 9 11 10 8 7 7 6 7 8 8 8 9 10 9
5 5 5 6 7 8 7 6 5 6 10 14 19 20 17 13 10 9 7 6 5 4 3 2 3 3 6 6 2 3 1 3 4 5 10 10 11 14 12 9 4 8 9 8 11 4 -0 5 2 -1 0 -1 -1 -3 -2 6 1 -5 -0 -0 1 6 5 3 6 8 7 9 11 7 6 8 10 9 8 9 10 9 8 7 7 7 8 8 8 8 9 9
6 5 5 5 5 6 7 8 7 6 6 6 11 16 20 20 15 11 9 8 6 6 4 2 3 2 5 6 5 5 -0 1 4 5 8 9 13 15 13 10 5 9 12 10 8 4 3 6 2 -0 1 -1 -0 -1 1 8 1 -5 2 -1 -1 8 7 2 6 10 8 7 8 9 8 8 9 7 6 7 8 10 9 9 9 9 9 8 9 9 9 9
8 7 6 6 5 5 5 6 7 8 8 7 6 8 13 19 22 18 12 9 8 8 7 4 3 2 3 5 6 6 -0 1 3 2 5 8 13 15 13 10 7 9 13 11 5 5 8 7 2 0 1 0 2 1 -1 3 -4 -7 3 -0 -1 8 6 -1 4 9 5 3 6 10 7 4 8 7 5 6 7 9 9 8 9 10 11 9 9 9 9 9
11 11 10 9 9 8 7 6 6 6 7 8 7 6 7 10 17 22 21 16 10 8 10 9 5 3 3 3 7 6 2 2 3 1 2 7 12 15 14 10 7 7 12 11 5 7 11 6 1 -0 1 -1 -0 0 -1 2 -4 -5 3 2 1 6 2 -4 3 10 4 1 6 12 7 1 5 7 7 5 4 7 8 8 8 9 11 10 10 10 10 10
10 11 11 11 11 10 11 10 9 8 7 7 7 8 8 7 8 14 21 23 19 12 9 11 10 5 2 3 5 5 5 5 3 3 1 3 10 15 15 10 6 5 11 12 4 9 12 3 1 1 2 0 0 1 -1 1 1 -1 2 4 5 5 0 -4 4 13 6 1 8 15 9 2 3 2 5 5 5 5 5 7 6 7 10 9 9 10 11 10
7 7 7 7 8 8 8 9 10 10 10 9 9 8 8 9 8 7 10 18 24 22 13 9 11 10 4 3 4 3 8 8 4 3 1 1 7 13 14 11 7 4 10 12 3 8 10 3 3 2 -1 1 3 1 -1 5 6 2 3 8 9 2 -1 -1 2 9 7 2 8 13 9 8 8 3 1 3 6 5 2 6 6 5 8 9 10 10 10 10
6 5 5 5 5 5 5 6 7 7 8 8 9 10 10 9 9 8 7 8 15 23 23 13 9 10 8 5 4 3 8 9 5 2 0 2 3 9 13 11 8 3 7 9 2 5 8 3 1 -2 -1 2 3 -2 -2 8 9 5 5 9 8 -2 0 4 -0 6 9 4 6 8 8 10 12 10 6 3 7 9 3 1 4 6 7 8 10 10 10 10
7 7 6 6 5 5 5 5 6 6 6 6 7 8 10 10 9 9 9 8 7 13 23 24 14 9 8 8 5 3 7 7 5 2 0 1 2 7 11 10 9 4 5 9 4 4 6 4 0 -1 4 3 -0 -3 -1 7 8 7 10 10 4 -4 2 5 4 13 10 3 7 8 7 8 6 9 11 7 7 12 10 2 1 3 6 8 9 10 11 10
7 7 7 7 7 6 5 5 5 6 5 5 6 6 7 9 10 10 9 9 9 7 12 22 25 15 8 9 7 3 6 6 2 2 2 1 1 5 8 8 10 6 5 8 7 5 2 4 7 5 4 1 1 -1 -1 9 8 7 15 12 3 -1 2 5 10 18 9 5 12 6 2 4 2 3 8 9 7 9 13 10 5 2 3 5 8 11 11 11
5 6 7 7 7 7 6 6 5 6 6 5 5 5 6 7 8 9 10 9 10 9 7 12 22 25 17 10 9 7 5 5 4 5 5 3 -0 3 6 5 9 10 6 6 7 5 1 6 7 5 4 1 4 -1 -2 12 10 7 13 6 6 7 -1 1 11 14 6 4 8 4 2 4 4 3 6 10 9 7 7 10 11 8 4 3 5 9 12 12
5 5 5 6 6 7 7 7 6 6 7 6 5 6 5 6 8 8 9 10 9 10 10 8 11 23 27 16 10 10 7 4 5 7 7 6 2 1 5 5 8 10 8 5 6 6 5 7 3 3 6 3 4 -1 -1 15 11 7 16 6 5 9 -2 1 12 13 10 6 5 8 7 5 4 3 7 10 9 9 7 5 8 9 7 5 5 5 9 10
6 5 5 4 5 6 7 7 7 7 7 7 6 7 6 6 8 8 8 10 9 9 9 11 8 13 24 24 14 9 9 6 4 7 8 6 3 2 4 5 6 7 7 5 7 10 8 7 6 3 3 3 6 2 -2 5 2 3 19 17 8 4 -1 6 14 14 16 15 11 11 9 6 6 9 11 10 6 6 7 6 7 8 6 6 6 4 5 8
8 7 6 5 4 5 6 6 7 7 7 7 6 6 7 7 8 8 10 11 11 10 9 10 10 8 14 25 24 13 9 9 6 6 6 6 4 3 3 3 4 4 5 5 6 11 10 5 5 3 6 9 6 4 -0 -2 -1 3 12 17 12 2 0 10 16 10 7 14 14 8 10 10 8 11 12 9 7 3 5 10 8 7 6 5 5 4 4 6
9 9 8 7 5 5 6 6 7 7 7 8 7 7 6 6 7 6 9 13 13 11 10 10 10 10 8 14 23 22 14 10 9 5 3 7 6 3 3 2 3 2 3 7 6 9 10 4 3 5 9 12 5 4 4 -2 -0 8 9 10 7 1 3 10 10 -0 -8 6 12 -1 0 7 3 4 8 9 12 9 8 11 5 4 6 5 5 4 3 5
9 9 9 9 8 6 6 6 6 6 7 7 7 8 8 7 7 5 5 11 17 15 12 12 10 11 11 8 13 24 23 13 11 10 3 5 7 4 4 3 2 2 3 7 8 7 6 5 11 15 12 9 6 2 3 1 -2 8 13 8 6 4 6 3 1 -2 -9 1 12 -2 -9 0 3 2 3 4 9 13 13 11 7 6 6 4 5 4 3 5
8 9 10 10 9 8 7 7 6 6 6 6 6 7 8 8 7 7 4 5 16 20 16 16 14 11 13 11 7 14 26 22 16 16 8 3 7 6 4 5 4 4 4 1 5 7 4 9 16 19 14 7 4 1 3 1 -5 7 13 6 8 6 2 1 2 5 1 1 10 6 -6 -5 1 1 2 4 6 9 11 12 12 10 8 3 3 4 3 6
8 8 9 9 10 9 9 9 8 7 6 6 7 6 7 8 7 9 7 2 7 16 17 17 16 14 12 13 10 6 19 28 19 15 15 5 5 6 2 5 6 4 2 -1 3 3 2 17 22 16 12 4 -0 3 6 -0 -6 8 14 5 5 6 6 9 6 3 -0 -0 6 11 5 -6 -4 1 -1 2 4 4 6 11 11 8 6 5 5 6 4 7
8 8 8 9 9 9 9 10 9 8 8 6 6 6 6 7 7 8 9 5 1 7 17 18 16 16 14 13 13 8 12 27 24 13 18 13 5 7 3 2 6 5 3 1 4 2 2 18 22 12 7 3 1 2 4 -1 -6 8 15 5 1 8 13 6 -1 -3 -6 0 3 5 11 -2 -7 1 -1 2 4 -1 3 13 15 10 6 5 5 6 4 7
7 7 8 8 8 8 8 9 9 8 8 8 6 7 6 6 8 7 9 8 -1 2 13 15 15 17 18 14 13 11 5 20 32 17 15 19 10 9 9 3 3 5 6 3 2 3 7 17 18 12 4 2 5 3 3 -1 -5 7 14 6 1 6 6 -5 -3 -0 -5 3 1 -2 9 -3 -9 2 -4 -3 3 -2 3 14 16 13 9 8 6 7 7 6
8 8 7 8 8 8 7 8 8 8 9 8 7 7 6 6 7 6 8 8 0 3 9 11 16 19 19 15 12 13 7 15 33 20 10 19 15 9 9 4 3 5 7 6 2 1 10 17 16 11 3 -0 5 4 3 -1 -5 8 13 8 7 4 0 -5 -2 0 -3 1 -4 -2 7 -8 -6 5 -7 -4 7 2 4 14 16 11 11 12 10 10 10 9
7 8 7 8 8 7 8 7 6 8 9 8 8 8 7 7 7 6 8 8 4 10 15 14 17 19 21 19 12 11 9 11 25 24 14 17 18 12 9 6 3 4 7 5 3 2 9 16 14 11 4 0 4 4 4 -1 -6 8 16 10 7 4 -1 -5 -6 -4 -3 -2 -5 2 7 -1 1 0 -7 5 7 -5 -1 14 20 11 5 9 11 11 12 11
7 7 7 8 8 8 8 7 5 7 8 9 8 7 7 6 6 6 7 8 7 10 13 11 11 15 22 25 19 11 8 9 18 25 22 18 19 15 11 11 5 3 8 5 2 5 7 12 12 10 4 -1 4 7 5 -2 -6 9 18 6 0 1 -4 -6 -4 -3 -3 1 3 1 -0 8 14 -2 -7 6 1 -0 11 15 15 7 -0 4 6 8 11 12
7 7 7 8 9 8 8 8 6 6 7 8 9 8 8 6 6 6 6 7 8 6 6 8 9 12 16 22 23 15 12 15 16 20 20 14 17 18 12 13 8 4 8 6 3 6 7 10 12 9 2 -1 5 8 4 -3 -5 8 17 4 -3 0 -2 -3 -3 -5 -2 2 4 4 1 11 19 -0 -9 5 9 9 11 6 5 4 5 9 8 6 13 17
7 7 7 7 8 8 8 8 6 6 7 7 9 9 8 8 7 6 7 8 9 8 8 9 10 12 15 20 23 16 16 22 18 17 21 13 12 19 15 12 8 4 8 8 4 6 7 8 11 7 4 5 6 4 2 -3 -5 5 15 7 -4 -3 -1 -0 -2 -1 3 -0 -1 6 2 4 19 9 -4 9 13 1 3 9 2 -5 4 12 10 9 13 14
7 7 7 7 7 7 8 8 7 7 8 8 8 9 8 8 7 5 6 8 8 10 10 8 8 11 14 20 21 14 13 23 21 16 21 16 8 13 14 10 7 5 6 8 6 7 8 6 8 7 8 12 6 2 3 -3 -6 4 13 9 -0 -4 -2 1 4 6 3 -2 -1 4 -1 5 28 25 4 4 3 -7 5 14 -8 -16 6 11 6 12 15 6
7 6 7 7 7 7 7 8 7 6 7 8 7 8 8 7 7 6 6 8 10 10 9 8 9 11 13 18 21 14 9 19 26 20 18 18 12 11 14 12 8 5 5 6 6 7 8 7 8 5 7 13 6 2 5 -2 -6 5 11 9 3 -2 -0 1 4 6 2 -2 -1 1 0 6 19 19 5 -1 -1 -3 9 13 -8 -8 14 10 1 11 13 3
7 6 6 7 7 7 8 7 7 6 6 7 7 8 7 5 7 9 8 10 11 10 7 6 7 9 13 16 18 17 12 14 23 23 17 17 14 12 15 14 11 9 7 7 6 7 8 9 10 8 6 12 7 1 5 1 -5 4 11 8 2 -1 2 1 -1 1 -1 -3 -2 -2 -2 0 5 12 13 7 3 1 6 9 -0 1 13 8 -2 2 5 3
8 7 6 6 6 7 7 8 8 7 7 6 7 7 5 5 6 9 10 8 9 8 6 4 4 7 15 18 15 15 14 14 19 21 17 16 14 12 12 12 11 9 8 9 9 7 8 7 9 10 7 11 11 3 4 5 -1 4 10 7 1 -1 1 0 -1 1 -0 -2 1 -1 -4 -4 -11 -13 -2 7 10 7 1 0 -2 -2 4 5 -4 -7 1 10
9 8 7 6 6 6 7 8 8 8 7 6 6 5 5 7 8 11 12 9 8 7 5 6 6 8 15 18 15 14 14 15 19 20 16 13 12 12 15 16 15 11 6 7 9 9 9 7 7 9 5 7 12 7 6 6 0 3 9 5 1 1 1 -2 -3 5 7 0 0 -1 -3 -3 -12 -21 -11 1 5 3 0 4 6 -2 0 11 10 -2 -2 8
9 9 8 7 8 7 6 7 8 8 8 7 6 6 6 8 10 11 10 8 10 9 8 9 6 7 14 15 12 14 16 15 17 19 17 14 8 6 11 17 20 20 15 9 8 8 10 9 9 10 7 6 8 8 9 8 1 1 6 4 4 4 0 -5 -5 5 8 -1 -2 0 -3 -2 -1 -1 2 3 5 2 -1 5 6 -1 3 15 15 2 -1 7
11 9 9 9 9 9 8 8 8 7 7 7 7 7 7 8 10 12 10 8 8 9 9 8 5 6 15 16 10 11 15 15 16 17 14 14 10 2 2 11 16 19 21 18 14 12 11 12 12 11 9 9 9 7 10 13 6 -1 1 6 8 4 -1 -1 1 5 5 -2 -3 0 -0 -2 -1 2 3 4 10 11 9 14 12 5 10 18 13 4 4 9
12 11 10 10 10 10 10 9 8 8 7 7 7 6 6 8 11 13 12 10 8 8 7 7 7 8 12 16 13 10 12 13 15 16 12 11 14 8 2 10 18 17 17 20 20 16 14 16 16 13 10 11 11 7 9 17 13 -1 -2 6 8 0 -3 2 5 5 5 0 -3 -0 -0 -2 -2 1 3 3 3 5 5 6 5 -3 2 17 17 6 6 11
15 14 12 12 11 11 11 10 9 9 8 8 7 8 8 9 13 13 12 10 8 8 8 6 8 8 9 17 18 11 9 10 12 16 13 9 15 16 4 2 13 17 16 22 26 21 19 19 16 14 14 14 14 14 12 16 15 5 1 5 7 1 -2 2 3 3 5 0 -3 0 -2 -3 -1 -0 4 4 -0 3 0 -4 2 -1 -1 15 18 9 12 16
17 18 14 13 14 11 11 11 10 10 10 9 8 9 9 9 12 13 10 8 7 7 8 6 7 8 9 15 18 14 8 7 10 12 11 8 10 15 9 1 4 8 9 17 24 24 27 28 18 11 14 16 14 13 15 16 13 8 3 5 8 5 1 4 3 1 3 -0 -3 -0 -1 -1 -1 1 9 9 2 4 1 4 16 8 0 12 16 12 14 9
17 18 14 14 16 12 11 12 11 10 11 10 9 9 10 8 9 11 9 7 8 9 8 6 5 7 10 13 17 16 9 4 7 9 7 7 8 7 8 8 7 3 2 8 14 17 25 33 26 10 11 20 16 10 13 18 16 10 4 5 7 5 2 4 5 4 4 1 -2 -1 -1 -1 -1 1 5 4 7 6 -4 1 14 8 2 10 13 16 15 6
17 17 12 15 17 13 11 12 11 11 11 10 10 9 9 9 8 10 10 7 6 8 8 9 7 7 13 17 17 15 10 5 5 7 4 4 7 7 4 7 8 3 3 8 9 9 14 29 36 23 12 14 17 17 16 15 18 14 6 6 7 3 3 3 3 5 5 1 -0 1 -0 -4 -0 6 3 -1 5 7 3 8 12 10 12 11 8 12 12 6
18 17 12 15 18 13 12 12 11 12 11 9 10 9 9 10 9 11 12 9 8 8 9 11 10 9 14 19 17 13 10 7 4 6 7 1 2 7 7 6 5 2 5 8 6 3 3 17 34 34 21 9 10 21 22 15 17 14 7 10 10 4 6 5 -1 3 8 3 -1 2 1 -3 2 7 5 4 4 4 13 15 2 1 12 8 2 5 8 10
19 18 12 14 17 14 13 13 11 11 11 10 10 10 11 11 10 12 13 12 10 9 10 11 10 11 14 17 15 10 9 11 8 5 6 3 1 6 9 5 1 3 7 6 3 3 5 10 21 28 27 16 8 15 19 14 13 12 9 12 11 5 7 7 1 6 14 7 0 2 4 5 9 8 6 10 6 1 11 15 5 4 8 3 4 11 13 12
20 19 14 14 17 16 13 13 13 12 11 10 10 11 13 13 11 12 13 13 11 8 9 10 9 10 14 15 13 11 9 12 12 6 4 6 7 9 7 3 2 6 10 6 2 5 9 8 12 24 33 25 9 7 14 13 11 12 12 12 13 10 7 6 4 3 6 6 6 10 9 5 4 3 9 14 6 1 13 24 20 10 3 4 11 18 17 11
21 19 16 17 18 18 16 14 13 13 12 11 10 11 12 13 13 13 13 14 13 10 9 9 8 9 12 14 13 13 13 12 12 9 6 5 7 9 8 4 2 6 11 9 5 6 8 4 3 18 37 36 20 11 15 18 14 12 11 12 17 15 8 9 4 -6 -3 4 5 8 11 7 2 4 11 13 5 7 19 26 18 4 1 6 5 8 13 10
21 20 19 17 17 17 18 16 13 12 12 11 11 11 12 13 13 12 12 12 12 12 10 10 9 8 11 15 14 13 15 14 11 11 10 7 4 6 9 5 -0 3 8 9 7 4 4 6 2 7 27 37 31 22 18 18 17 14 11 13 18 14 7 7 3 -3 4 8 3 6 11 9 10 16 17 12 8 11 13 13 12 5 3 3 -1 4 14 9
19 19 18 16 15 16 18 17 14 12 12 12 11 11 13 14 13 11 10 11 13 13 11 9 8 8 10 13 13 12 14 14 11 10 11 9 5 2 5 4 2 6 9 8 8 3 2 8 6 5 15 25 28 29 22 16 16 14 11 15 18 13 6 2 1 6 11 3 -3 5 11 12 16 19 17 15 14 13 9 9 11 7 2 1 1 8 17 14
15 16 15 14 13 14 16 16 14 12 14 15 13 12 13 13 13 12 11 12 13 13 11 10 9 9 9 9 10 12 13 12 13 15 12 10 10 6 -1 -1 1 4 9 10 7 4 4 6 4 2 8 12 17 27 27 18 16 16 12 12 13 10 7 2 0 9 16 12 6 4 7 13 11 5 9 18 15 5 1 1 5 5 3 2 4 6 6 6
13 13 13 12 12 12 12 14 13 9 11 15 12 10 13 13 13 13 12 12 13 12 11 10 8 9 10 9 11 13 13 10 12 20 17 7 9 11 6 2 -2 -4 5 11 9 8 5 1 -2 -4 2 7 7 15 27 23 17 18 14 8 5 4 6 8 8 9 11 12 9 5 9 13 3 -5 7 18 14 4 -3 -6 -2 3 5 4 3 2 -3 -2
14 13 12 11 11 12 12 12 13 9 7 11 12 9 12 14 13 14 12 11 12 12 12 10 8 10 12 11 11 12 13 11 8 15 21 10 4 11 14 12 5 -1 5 12 12 11 4 -4 -3 -3 3 12 5 4 21 25 19 23 20 7 2 2 2 8 14 11 3 -3 -4 2 11 9 -4 -6 4 8 7 5 0 -3 -2 -1 1 1 -3 -1 5 10
14 14 14 12 11 14 16 15 15 12 8 10 12 9 10 13 13 13 13 12 12 13 13 11 8 9 12 12 11 10 11 12 8 10 19 15 8 12 14 10 6 3 7 13 12 10 7 -0 -1 4 12 14 5 1 8 11 16 29 27 11 4 2 -2 1 7 9 7 4 3 9 13 7 -3 -2 2 2 4 7 6 8 7 0 -1 -1 -4 -0 8 12
Height
5884 5883 5883 5883 5883 5883 5883 5883 5884 5884 5885 5886 5887 5888 5888 5889 5889 5890 5890 5890 5891 5892 5892 5893 5893 5893 5894 5894 5894 5894 5894 5894 5894 5895 5895 5895 5896 5896 5897 5898 5899 5900 5901 5902 5903 5903 5904 5905 5906 5906 5907 5907 5908 5909 5909 5909 5909 5909 5909 5909 5909 5910 5910 5910 5910 5910 5910 5909 5909 5909 5908 5908 5908 5908 5908 5908 5909 5908 5908 5908 5907 5907 5907 5907 5908 5908 5908 5909
5883 5882 5882 5881 5881 5881 5881 5881 5882 5882 5882 5883 5884 5885 5886 5887 5887 5888 5888 5889 5889 5890 5891 5892 5892 5892 5893 5893 5893 5894 5894 5894 5894 5894 5894 5894 5895 5896 5897 5897 5898 5899 5900 5902 5903 5903 5904 5905 5905 5906 5907 5908 5908 5909 5910 5909 5910 5910 5910 5909 5910 5910 5910 5910 5911 5911 5911 5911 5910 5910 5910 5909 5909 5909 5909 5909 5909 5909 5908 5909 5908 5908 5908 5908 5909 5909 5910 5910
5882 5881 5881 5880 5880 5879 5879 5879 5879 5880 5880 5881 5881 5882 5883 5884 5885 5886 5887 5887 5888 5888 5889 5890 5891 5891 5892 5892 5893 5893 5894 5894 5894 5894 5894 5894 5895 5895 5895 5896 5897 5898 5900 5901 5902 5903 5904 5904 5905 5905 5906 5907 5908 5909 5910 5910 5910 5910 5910 5910 5910 5910 5910 5910 5911 5912 5912 5912 5912 5911 5911 5910 5909 5909 5910 5909 5909 5909 5909 5909 5909 5909 5909 5909 5910 5910 5910 5911
5881 5880 5880 5879 5878 5878 5878 5877 5877 5877 5878 5878 5879 5880 5881 5882 5883 5884 5884 5885 5886 5886 5887 5888 5889 5890 5891 5891 5892 5892 5893 5893 5893 5893 5894 5894 5894 5894 5895 5896 5897 5898 5899 5900 5902 5903 5903 5904 5905 5905 5906 5907 5908 5909 5909 5909 5909 5910 5910 5910 5910 5910 5910 5910 5911 5912 5913 5913 5913 5912 5911 5910 5910 5910 5910 5910 5910 5910 5910 5910 5910 5910 5910 5910 5911 5911 5911 5911
5879 5879 5878 5878 5877 5877 5876 5876 5876 5876 5876 5876 5877 5877 5878 5879 5880 5881 5882 5883 5884 5884 5885 5886 5887 5888 5889 5890 5891 5891 5892 5892 5893 5893 5894 5894 5894 5894 5895 5895 5896 5897 5898 5900 5901 5902 5903 5904 5904 5905 5906 5907 5908 5908 5909 5909 5909 5910 5910 5910 5911 5911 5910 5910 5911 5912 5913 5913 5914 5913 5912 5911 5911 5911 5911 5911 5911 5910 5910 5910 5911 5911 5911 5911 5911 5911 5912 5912
5877 5877 5876 5876 5876 5875 5875 5875 5874 5874 5874 5874 5874 5875 5875 5876 5877 5878 5879 5880 5881 5882 5883 5884 5885 5887 5887 5889 5889 5890 5891 5891 5892 5892 5893 5893 5893 5893 5894 5895 5896 5897 5898 5899 5901 5902 5902 5903 5904 5905 5906 5906 5907 5908 5909 5909 5910 5910 5911 5911 5911 5912 5911 5910 5911 5912 5913 5914 5914 5914 5913 5912 5912 5912 5912 5912 5911 5910 5910 5911 5911 5911 5911 5912 5912 5912 5912 5912
5875 5875 5874 5874 5874 5874 5873 5873 5873 5873 5872 5872 5872 5872 5873 5873 5874 5875 5876 5878 5879 5880 5881 5882 5883 5885 5886 5887 5888 5889 5890 5890 5891 5891 5891 5892 5892 5892 5893 5894 5895 5896 5898 5899 5900 5901 5902 5903 5904 5904 5905 5906 5907 5908 5909 5909 5910 5910 5911 5911 5911 5912 5911 5910 5911 5912 5913 5914 5914 5914 5914 5913 5913 5913 5912 5912 5912 5911 5911 5911 5911 5912 5912 5912 5912 5912 5913 5913
5873 5873 5872 5872 5872 5872 5872 5871 5871 5871 5871 5871 5870 5870 5870 5871 5872 5872 5873 5875 5876 5878 5878 5880 5881 5882 5884 5885 5886 5887 5888 5889 5890 5890 5890 5891 5891 5892 5892 5893 5894 5895 5897 5898 5899 5900 5901 5902 5903 5904 5905 5906 5907 5908 5908 5909 5909 5910 5911 5910 5911 5912 5911 5910 5911 5912 5913 5914 5915 5915 5915 5915 5914 5913 5913 5913 5912 5912 5912 5912 5912 5912 5913 5913 5912 5913 5913 5914
5871 5871 5870 5870 5870 5869 5869 5869 5869 5869 5869 5869 5869 5869 5869 5869 5869 5870 5871 5872 5874 5875 5876 5877 5879 5880 5882 5883 5885 5886 5886 5887 5888 5888 5889 5889 5890 5891 5891 5892 5893 5894 5896 5897 5898 5899 5900 5902 5902 5903 5904 5904 5906 5907 5907 5908 5909 5910 5911 5910 5910 5911 5911 5910 5911 5912 5913 5914 5915 5915 5915 5915 5915 5914 5914 5914 5913 5913 5913 5913 5913 5913 5913 5913 5913 5913 5914 5914
5869 5869 5868 5868 5868 5867 5867 5867 5867 5867 5866 5866 5867 5867 5867 5867 5867 5867 5868 5869 5871 5872 5874 5875 5876 5878 5879 5881 5883 5883 5884 5885 5886 5887 5887 5888 5888 5889 5890 5891 5891 5892 5893 5895 5896 5898 5899 5901 5901 5902 5902 5903 5904 5905 5906 5906 5907 5909 5911 5910 5909 5910 5910 5910 5911 5912 5913 5913 5914 5915 5915 5916 5915 5915 5915 5915 5914 5914 5914 5914 5913 5913 5913 5914 5914 5914 5914 5915
5867 5867 5866 5866 5866 5865 5865 5865 5865 5864 5864 5864 5864 5865 5866 5866 5865 5865 5866 5867 5868 5869 5871 5872 5874 5875 5876 5879 5880 5880 5882 5884 5885 5886 5886 5886 5887 5888 5888 5889 5889 5890 5892 5893 5895 5896 5898 5899 5900 5901 5901 5902 5903 5904 5904 5905 5907 5909 5911 5911 5910 5909 5909 5909 5911 5912 5912 5912 5913 5915 5915 5916 5916 5915 5915 5915 5915 5915 5915 5914 5914 5914 5913 5914 5914 5914 5915 5915
5865 5865 5864 5864 5864 5863 5863 5863 5863 5862 5862 5861 5862 5863 5864 5864 5863 5863 5864 5864 5865 5866 5867 5869 5870 5872 5873 5876 5876 5877 5880 5882 5883 5884 5884 5885 5885 5885 5886 5887 5888 5889 5890 5891 5892 5894 5895 5896 5898 5899 5900 5901 5902 5902 5903 5905 5906 5908 5910 5911 5910 5909 5909 5909 5910 5912 5912 5911 5912 5914 5915 5916 5916 5916 5916 5916 5916 5916 5916 5915 5915 5915 5914 5914 5915 5915 5915 5915
5864 5863 5863 5862 5862 5862 5861 5861 5860 5860 5859 5859 5860 5861 5862 5862 5861 5861 5861 5862 5862 5862 5863 5864 5866 5868 5870 5871 5871 5875 5878 5879 5880 5880 5881 5882 5883 5883 5884 5884 5886 5888 5889 5889 5889 5890 5891 5893 5895 5896 5898 5899 5901 5901 5902 5904 5906 5907 5909 5910 5909 5908 5908 5909 5910 5911 5911 5911 5912 5913 5915 5915 5916 5916 5916 5917 5917 5917 5917 5916 5916 5916 5915 5915 5916 5916 5916 5916
5863 5862 5861 5861 5860 5860 5859 5859 5858 5857 5857 5857 5857 5859 5859 5859 5859 5859 5859 5859 5859 5859 5859 5861 5862 5863 5866 5866 5867 5872 5875 5875 5875 5875 5877 5880 5880 5881 5881 5882 5883 5885 5888 5888 5887 5887 5888 5889 5891 5893 5896 5898 5899 5900 5900 5903 5905 5906 5908 5909 5908 5908 5909 5910 5911 5911 5911 5911 5911 5913 5914 5915 5916 5916 5916 5917 5917 5917 5917 5917 5917 5917 5917 5917 5917 5917 5917 5917
5861 5860 5860 5859 5858 5858 5858 5857 5856 5855 5854 5854 5855 5856 5857 5857 5856 5856 5856 5857 5857 5857 5856 5857 5858 5860 5861 5861 5864 5869 5871 5870 5870 5871 5875 5877 5877 5878 5878 5879 5880 5882 5885 5887 5887 5887 5887 5888 5890 5892 5895 5896 5897 5898 5898 5901 5904 5905 5906 5908 5908 5908 5908 5909 5910 5911 5911 5911 5912 5913 5914 5915 5916 5916 5916 5917 5918 5918 5918 5918 5918 5918 5918 5918 5918 5918 5918 5918
5858 5858 5858 5857 5856 5856 5856 5855 5854 5853 5852 5852 5852 5853 5854 5854 5854 5854 5854 5854 5854 5854 5854 5855 5855 5856 5858 5857 5861 5866 5866 5866 5867 5870 5873 5874 5875 5876 5876 5877 5878 5879 5882 5884 5885 5885 5886 5888 5890 5891 5893 5894 5896 5897 5897 5899 5902 5903 5906 5907 5908 5908 5907 5908 5909 5910 5911 5912 5913 5913 5914 5915 5916 5916 5917 5917 5918 5918 5919 5919 5919 5919 5918 5918 5919 5919 5918 5918
5856 5855 5855 5854 5854 5854 5853 5853 5852 5851 5850 5850 5850 5850 5851 5851 5851 5851 5851 5851 5851 5851 5851 5852 5852 5854 5854 5854 5857 5861 5862 5862 5865 5868 5871 5872 5873 5874 5875 5875 5876 5877 5878 5880 5882 5883 5885 5887 5888 5890 5891 5892 5894 5894 5895 5897 5900 5902 5905 5906 5906 5906 5906 5907 5909 5910 5911 5912 5913 5914 5914 5915 5916 5916 5917 5918 5918 5919 5919 5919 5919 5919 5919 5918 5919 5919 5919 5919
5853 5852 5852 5851 5851 5851 5851 5850 5850 5849 5848 5847 5848 5847 5847 5848 5848 5848 5848 5848 5848 5848 5848 5849 5850 5850 5851 5850 5853 5856 5857 5858 5862 5865 5867 5869 5871 5872 5873 5873 5873 5874 5875 5876 5878 5881 5883 5885 5886 5888 5889 5890 5891 5892 5894 5897 5900 5902 5905 5907 5905 5904 5905 5907 5909 5910 5911 5912 5914 5914 5915 5915 5915 5916 5917 5918 5919 5919 5919 5919 5919 5919 5919 5918 5918 5918 5919 5919
5849 5849 5849 5848 5848 5847 5847 5847 5847 5846 5845 5845 5845 5845 5845 5845 5845 5844 5844 5844 5844 5844 5845 5846 5846 5847 5848 5847 5848 5851 5853 5855 5858 5861 5863 5864 5867 5869 5870 5870 5870 5871 5872 5874 5876 5878 5880 5882 5883 5884 5886 5888 5890 5892 5894 5897 5899 5902 5904 5906 5905 5903 5903 5906 5908 5910 5911 5913 5914 5915 5915 5915 5915 5916 5917 5917 5918 5918 5918 5918 5918 5918 5918 5918 5918 5917 5918 5918
5846 5846 5845 5845 5844 5844 5844 5844 5844 5843 5843 5842 5842 5842 5842 5842 5842 5842 5841 5840 5840 5840 5841 5841 5843 5844 5844 5844 5844 5846 5849 5851 5854 5856 5858 5860 5863 5865 5866 5867 5868 5869 5870 5872 5874 5876 5878 5879 5880 5883 5886 5888 5890 5892 5894 5895 5898 5900 5902 5904 5903 5902 5902 5905 5907 5910 5911 5913 5914 5915 5915 5915 5915 5915 5916 5917 5917 5918 5918 5918 5918 5918 5918 5918 5917 5917 5916 5917
5843 5842 5842 5841 5841 5840 5840 5840 5840 5840 5839 5839 5839 5838 5839 5839 5839 5839 5839 5838 5835 5835 5837 5837 5839 5841 5841 5839 5839 5842 5845 5847 5850 5852 5854 5856 5859 5861 5863 5864 5865 5867 5870 5872 5872 5873 5874 5876 5879 5883 5887 5889 5890 5891 5892 5894 5896 5898 5900 5902 5902 5901 5901 5903 5905 5908 5910 5912 5914 5914 5915 5915 5915 5915 5915 5916 5916 5917 5917 5917 5917 5917 5917 5917 5916 5916 5916 5916
5839 5839 5838 5838 5837 5836 5836 5836 5836 5836 5836 5836 5836 5835 5835 5835 5835 5836 5837 5837 5833 5829 5830 5833 5835 5837 5837 5835 5836 5838 5841 5844 5848 5849 5850 5852 5854 5857 5859 5861 5863 5865 5868 5869 5869 5870 5872 5875 5880 5884 5886 5887 5888 5889 5890 5892 5894 5896 5898 5900 5901 5900 5900 5901 5903 5906 5909 5911 5912 5913 5914 5914 5914 5914 5914 5915 5915 5915 5915 5915 5916 5916 5916 5916 5916 5915 5916 5916
5835 5835 5835 5834 5833 5832 5832 5832 5832 5832 5832 5832 5832 5831 5831 5831 5832 5832 5833 5836 5834 5827 5825 5827 5831 5833 5832 5831 5831 5834 5837 5841 5844 5844 5845 5848 5850 5853 5855 5857 5861 5863 5864 5865 5867 5869 5871 5875 5880 5882 5883 5883 5884 5886 5888 5890 5892 5894 5896 5898 5899 5898 5899 5901 5903 5906 5907 5909 5910 5911 5912 5912 5913 5913 5913 5914 5914 5914 5914 5914 5914 5915 5915 5915 5915 5915 5915 5916
5831 5831 5831 5830 5830 5828 5828 5828 5828 5828 5828 5828 5828 5827 5827 5827 5827 5828 5829 5832 5833 5827 5822 5822 5825 5827 5828 5827 5827 5831 5835 5837 5838 5839 5841 5844 5846 5848 5851 5854 5857 5859 5861 5863 5865 5868 5871 5875 5878 5878 5879 5881 5882 5884 5885 5887 5890 5892 5894 5897 5898 5898 5899 5901 5903 5904 5906 5907 5908 5909 5910 5911 5911 5911 5912 5913 5913 5913 5913 5912 5912 5913 5914 5914 5914 5915 5915 5916
5828 5827 5827 5826 5826 5825 5824 5824 5823 5824 5824 5824 5824 5823 5823 5823 5822 5824 5824 5826 5830 5826 5821 5819 5820 5821 5823 5823 5823 5826 5829 5832 5835 5835 5836 5841 5843 5844 5847 5850 5852 5856 5858 5860 5862 5865 5870 5873 5874 5875 5877 5878 5879 5881 5883 5886 5888 5890 5892 5896 5898 5898 5898 5899 5900 5901 5902 5904 5906 5907 5908 5909 5909 5909 5910 5911 5912 5912 5912 5911 5911 5911 5912 5912 5913 5914 5914 5915
5824 5823 5823 5822 5822 5821 5820 5820 5819 5819 5819 5819 5820 5819 5819 5819 5818 5819 5820 5821 5825 5824 5819 5817 5816 5817 5818 5819 5819 5820 5824 5829 5831 5830 5831 5836 5839 5840 5842 5845 5848 5852 5855 5857 5859 5862 5867 5870 5871 5872 5874 5875 5876 5878 5881 5884 5886 5888 5891 5895 5896 5896 5897 5897 5898 5898 5899 5902 5904 5905 5905 5906 5906 5907 5908 5909 5910 5911 5911 5910 5910 5910 5910 5911 5911 5912 5913 5913
5819 5819 5819 5818 5818 5817 5816 5815 5815 5815 5815 5815 5815 5815 5815 5815 5814 5815 5816 5816 5819 5820 5817 5815 5813 5813 5814 5814 5815 5816 5820 5825 5826 5825 5827 5832 5834 5836 5838 5840 5844 5848 5851 5852 5854 5859 5865 5867 5867 5868 5870 5871 5873 5875 5879 5881 5884 5887 5891 5894 5894 5894 5895 5895 5896 5897 5898 5901 5901 5900 5902 5902 5904 5906 5906 5906 5907 5909 5909 5909 5909 5909 5909 5910 5910 5911 5911 5912
5814 5814 5814 5814 5813 5813 5812 5811 5810 5810 5810 5811 5811 5811 5811 5810 5810 5811 5811 5812 5815 5815 5814 5812 5810 5810 5811 5811 5812 5812 5815 5820 5820 5820 5824 5828 5829 5831 5834 5837 5841 5844 5846 5848 5851 5857 5863 5864 5865 5866 5867 5867 5871 5875 5879 5880 5883 5887 5891 5892 5893 5893 5893 5894 5894 5895 5896 5897 5895 5897 5899 5899 5901 5904 5904 5905 5906 5907 5908 5908 5908 5908 5908 5909 5909 5910 5910 5910
5809 5809 5810 5809 5809 5809 5808 5807 5806 5805 5805 5807 5807 5806 5807 5806 5806 5807 5806 5807 5811 5811 5810 5810 5808 5807 5808 5808 5808 5808 5811 5815 5815 5815 5818 5821 5823 5826 5830 5834 5838 5840 5841 5843 5848 5854 5859 5861 5862 5864 5864 5866 5871 5876 5877 5878 5882 5887 5889 5889 5891 5891 5891 5891 5891 5893 5893 5891 5892 5895 5897 5896 5898 5901 5902 5903 5904 5905 5906 5907 5908 5908 5908 5908 5908 5909 5909 5909
5804 5804 5804 5805 5804 5804 5804 5802 5802 5801 5801 5801 5802 5802 5802 5802 5802 5802 5801 5804 5807 5807 5806 5806 5805 5804 5805 5806 5805 5805 5807 5810 5810 5811 5813 5815 5818 5822 5826 5829 5832 5834 5835 5838 5842 5848 5852 5856 5857 5858 5861 5866 5871 5874 5874 5876 5881 5885 5885 5886 5888 5888 5888 5888 5888 5890 5888 5886 5889 5894 5896 5894 5894 5896 5899 5901 5902 5903 5905 5906 5907 5907 5907 5907 5907 5908 5908 5908
5799 5798 5799 5799 5799 5799 5798 5797 5797 5797 5796 5796 5797 5798 5798 5798 5798 5797 5797 5801 5803 5802 5802 5802 5802 5801 5801 5802 5801 5801 5803 5806 5806 5807 5808 5811 5813 5815 5819 5822 5824 5826 5828 5831 5836 5841 5845 5849 5850 5853 5858 5863 5866 5869 5871 5874 5878 5881 5881 5883 5884 5884 5885 5885 5884 5885 5883 5883 5888 5893 5894 5892 5891 5894 5897 5899 5901 5901 5902 5904 5905 5906 5906 5906 5906 5906 5907 5907
5793 5793 5793 5793 5794 5794 5793 5792 5792 5792 5792 5792 5792 5792 5793 5793 5792 5792 5795 5799 5799 5798 5798 5797 5798 5798 5797 5797 5797 5797 5799 5802 5803 5803 5804 5806 5808 5811 5814 5817 5819 5821 5823 5826 5831 5835 5839 5843 5846 5849 5854 5858 5861 5864 5866 5869 5872 5875 5876 5878 5879 5879 5880 5880 5880 5881 5879 5882 5888 5891 5891 5889 5888 5892 5896 5897 5899 5899 5900 5902 5903 5905 5905 5905 5905 5905 5905 5905
5787 5787 5787 5787 5788 5788 5787 5787 5787 5786 5787 5788 5787 5786 5787 5786 5786 5789 5794 5795 5794 5794 5794 5793 5793 5793 5793 5793 5793 5793 5796 5797 5799 5799 5800 5802 5804 5807 5811 5814 5816 5819 5822 5826 5829 5832 5835 5839 5842 5846 5849 5853 5856 5859 5861 5863 5867 5869 5871 5874 5874 5875 5876 5875 5877 5877 5878 5882 5886 5888 5887 5884 5886 5892 5894 5895 5897 5898 5898 5899 5901 5903 5903 5904 5904 5903 5904 5904
5781 5781 5781 5780 5781 5782 5782 5782 5781 5780 5781 5782 5782 5781 5780 5780 5783 5787 5790 5790 5790 5790 5789 5789 5789 5789 5790 5790 5789 5790 5793 5793 5795 5796 5796 5798 5800 5803 5806 5809 5811 5814 5818 5822 5824 5827 5830 5833 5838 5842 5844 5849 5853 5855 5858 5862 5865 5868 5870 5872 5871 5871 5872 5873 5875 5877 5879 5882 5884 5884 5882 5879 5885 5891 5892 5893 5895 5895 5896 5897 5898 5900 5900 5901 5901 5901 5902 5902
5774 5774 5774 5774 5774 5776 5776 5776 5775 5775 5775 5776 5776 5775 5774 5776 5780 5783 5784 5785 5785 5784 5784 5785 5786 5786 5786 5786 5785 5787 5789 5790 5791 5792 5792 5794 5796 5799 5802 5805 5808 5810 5813 5815 5818 5822 5823 5828 5836 5840 5841 5846 5850 5853 5857 5859 5862 5865 5867 5868 5866 5867 5871 5873 5875 5876 5878 5879 5879 5879 5877 5877 5883 5888 5889 5891 5892 5892 5894 5894 5895 5897 5898 5898 5898 5898 5900 5900
5766 5766 5767 5767 5768 5769 5769 5769 5769 5768 5768 5769 5769 5769 5770 5773 5776 5777 5778 5780 5780 5780 5780 5781 5781 5782 5783 5782 5782 5783 5786 5787 5788 5789 5790 5791 5792 5795 5797 5801 5804 5807 5810 5812 5815 5817 5819 5825 5834 5836 5837 5842 5846 5849 5853 5855 5857 5860 5861 5861 5862 5867 5871 5872 5872 5873 5875 5874 5873 5874 5874 5876 5880 5882 5885 5888 5889 5890 5892 5892 5893 5894 5895 5895 5896 5897 5898 5898
5758 5758 5759 5759 5761 5762 5762 5762 5762 5762 5762 5762 5762 5764 5767 5769 5770 5771 5772 5774 5775 5775 5776 5776 5776 5777 5778 5779 5779 5779 5781 5783 5784 5785 5786 5787 5789 5791 5793 5796 5799 5802 5806 5809 5811 5814 5816 5822 5829 5831 5833 5838 5841 5845 5849 5852 5854 5855 5856 5859 5862 5865 5867 5868 5868 5868 5869 5869 5868 5870 5873 5874 5876 5879 5883 5885 5886 5888 5889 5890 5891 5892 5892 5893 5894 5895 5896 5896
5751 5750 5750 5751 5753 5754 5755 5755 5755 5755 5754 5754 5756 5759 5762 5763 5765 5766 5766 5767 5769 5770 5770 5771 5771 5772 5774 5775 5776 5776 5777 5779 5780 5782 5782 5783 5785 5789 5791 5793 5795 5798 5802 5804 5806 5809 5812 5816 5822 5826 5828 5832 5837 5840 5842 5845 5848 5850 5853 5857 5859 5860 5861 5863 5863 5863 5864 5865 5865 5867 5869 5871 5872 5876 5880 5883 5884 5886 5887 5888 5889 5889 5890 5891 5892 5893 5894 5894
5742 5742 5742 5743 5744 5745 5746 5747 5747 5747 5747 5748 5751 5754 5756 5758 5760 5760 5760 5761 5763 5764 5765 5766 5766 5767 5769 5771 5772 5773 5774 5775 5777 5779 5779 5780 5783 5787 5789 5790 5791 5794 5798 5800 5801 5804 5806 5810 5815 5820 5823 5825 5829 5830 5832 5838 5842 5844 5848 5850 5852 5855 5857 5859 5860 5860 5862 5862 5862 5864 5865 5865 5869 5874 5878 5880 5882 5884 5885 5886 5887 5888 5888 5890 5890 5891 5892 5892
5733 5733 5733 5735 5736 5736 5737 5739 5739 5739 5740 5742 5745 5747 5749 5751 5753 5753 5753 5754 5756 5758 5760 5760 5761 5762 5763 5765 5768 5769 5770 5771 5774 5775 5775 5777 5780 5783 5786 5787 5788 5790 5793 5795 5797 5800 5802 5803 5808 5814 5817 5818 5820 5823 5827 5834 5837 5838 5841 5843 5845 5850 5852 5854 5856 5857 5858 5859 5860 5861 5860 5861 5867 5872 5875 5877 5880 5881 5883 5884 5885 5886 5887 5888 5889 5889 5890 5891
5723 5723 5724 5726 5727 5727 5728 5730 5731 5732 5733 5735 5738 5740 5741 5743 5745 5746 5746 5747 5749 5751 5753 5754 5755 5756 5758 5760 5762 5765 5766 5767 5770 5772 5772 5775 5777 5780 5783 5785 5786 5787 5787 5789 5791 5794 5796 5798 5802 5808 5809 5812 5817 5821 5826 5831 5833 5835 5837 5839 5843 5846 5848 5850 5851 5852 5855 5856 5856 5857 5856 5858 5865 5870 5872 5875 5877 5879 5881 5882 5883 5884 5885 5886 5886 5887 5888 5888
5712 5713 5714 5717 5718 5718 5719 5721 5722 5724 5725 5728 5730 5732 5734 5735 5737 5739 5739 5740 5741 5744 5747 5749 5751 5752 5753 5756 5758 5761 5762 5764 5767 5768 5770 5773 5775 5777 5780 5782 5783 5783 5782 5783 5785 5790 5793 5794 5796 5801 5804 5809 5815 5818 5821 5824 5828 5831 5833 5836 5840 5843 5844 5845 5845 5849 5852 5853 5853 5854 5854 5856 5861 5867 5870 5872 5874 5877 5879 5880 5881 5882 5883 5883 5884 5884 5885 5886
5702 5703 5704 5707 5709 5710 5711 5712 5713 5715 5718 5720 5722 5723 5725 5727 5729 5731 5732 5733 5735 5739 5742 5744 5747 5748 5749 5752 5753 5755 5758 5760 5762 5765 5767 5770 5772 5775 5778 5779 5779 5779 5779 5780 5782 5785 5788 5788 5790 5796 5801 5805 5809 5812 5814 5817 5821 5824 5826 5830 5834 5837 5840 5842 5844 5848 5850 5849 5851 5853 5851 5854 5860 5864 5867 5870 5872 5875 5876 5877 5878 5879 5880 5881 5881 5882 5882 5883
5692 5693 5694 5697 5700 5701 5702 5703 5704 5707 5709 5711 5713 5716 5718 5719 5722 5724 5726 5728 5730 5733 5736 5739 5742 5743 5744 5746 5748 5750 5753 5755 5759 5761 5763 5765 5769 5772 5775 5775 5776 5776 5775 5777 5779 5781 5781 5782 5786 5791 5794 5798 5801 5803 5805 5809 5813 5817 5821 5825 5828 5832 5837 5839 5842 5845 5845 5845 5849 5850 5848 5853 5858 5861 5864 5867 5870 5872 5873 5874 5875 5876 5877 5878 5878 5879 5880 5880
5682 5683 5684 5687 5690 5691 5693 5694 5696 5698 5701 5703 5706 5709 5711 5712 5715 5718 5720 5722 5724 5726 5729 5732 5735 5737 5739 5741 5743 5745 5748 5751 5755 5756 5758 5762 5767 5770 5771 5771 5772 5773 5773 5774 5776 5777 5777 5779 5782 5785 5787 5790 5793 5796 5800 5805 5809 5812 5816 5820 5823 5828 5831 5834 5837 5839 5838 5841 5845 5845 5846 5851 5856 5858 5861 5864 5866 5868 5870 5870 5872 5873 5874 5875 5875 5876 5876 5877
5672 5673 5674 5676 5679 5682 5684 5686 5688 5689 5692 5695 5698 5701 5703 5705 5708 5710 5713 5715 5717 5719 5722 5726 5728 5731 5733 5735 5738 5741 5744 5747 5749 5752 5755 5760 5764 5767 5768 5769 5770 5771 5771 5772 5773 5774 5774 5775 5777 5780 5783 5787 5792 5798 5803 5806 5807 5810 5814 5817 5820 5824 5827 5831 5832 5832 5835 5838 5840 5841 5845 5849 5853 5856 5859 5861 5863 5866 5867 5867 5869 5870 5871 5872 5873 5873 5874 5874
5663 5665 5666 5666 5668 5672 5675 5677 5679 5681 5683 5687 5690 5693 5695 5697 5700 5703 5705 5708 5711 5713 5716 5719 5722 5725 5728 5731 5733 5736 5740 5742 5744 5747 5752 5756 5760 5763 5765 5767 5768 5768 5769 5769 5770 5771 5771 5772 5774 5777 5780 5786 5792 5798 5802 5803 5805 5808 5812 5815 5818 5821 5824 5826 5827 5829 5834 5835 5835 5840 5845 5846 5849 5853 5856 5858 5861 5863 5864 5865 5866 5867 5868 5869 5870 5871 5871 5871
5653 5655 5657 5658 5658 5661 5665 5668 5671 5673 5675 5678 5682 5685 5688 5690 5692 5695 5698 5701 5704 5707 5709 5712 5716 5719 5722 5725 5727 5730 5734 5736 5737 5742 5748 5751 5754 5758 5762 5764 5765 5765 5766 5766 5767 5769 5769 5770 5773 5775 5777 5782 5787 5793 5796 5799 5801 5804 5808 5811 5815 5817 5820 5822 5824 5828 5831 5831 5832 5839 5842 5842 5846 5851 5853 5856 5858 5860 5861 5862 5863 5864 5865 5866 5867 5867 5868 5868
5643 5646 5648 5649 5651 5652 5654 5658 5662 5665 5667 5670 5674 5677 5680 5682 5685 5688 5691 5694 5697 5700 5703 5706 5710 5713 5715 5718 5721 5724 5728 5731 5733 5738 5743 5747 5749 5753 5758 5761 5761 5762 5763 5763 5764 5765 5766 5769 5772 5773 5775 5778 5782 5786 5790 5793 5796 5799 5802 5806 5810 5813 5816 5818 5821 5825 5827 5827 5831 5836 5837 5838 5843 5847 5850 5853 5855 5856 5858 5859 5860 5861 5862 5863 5864 5864 5865 5865
5634 5636 5638 5640 5643 5644 5645 5648 5653 5657 5659 5662 5665 5669 5672 5675 5678 5681 5684 5687 5690 5694 5697 5701 5704 5706 5709 5713 5716 5719 5723 5726 5729 5733 5738 5742 5744 5748 5753 5756 5756 5758 5759 5760 5760 5761 5764 5768 5770 5771 5772 5773 5777 5782 5785 5787 5790 5793 5797 5801 5805 5808 5811 5813 5816 5819 5821 5824 5827 5830 5831 5834 5839 5844 5846 5849 5850 5852 5854 5855 5857 5858 5859 5860 5860 5861 5862 5862
5623 5626 5628 5631 5634 5635 5637 5639 5643 5647 5651 5654 5657 5662 5665 5668 5672 5674 5676 5680 5685 5688 5691 5695 5698 5701 5705 5708 5711 5714 5717 5720 5723 5728 5732 5735 5738 5742 5747 5751 5752 5753 5754 5756 5756 5759 5762 5764 5766 5767 5767 5768 5773 5777 5780 5783 5786 5786 5789 5795 5799 5802 5805 5809 5812 5815 5817 5820 5823 5824 5825 5830 5836 5840 5842 5844 5846 5848 5850 5852 5853 5855 5856 5856 5857 5858 5859 5859
5613 5616 5619 5622 5625 5627 5629 5631 5634 5638 5642 5646 5649 5654 5658 5661 5665 5667 5670 5674 5679 5682 5685 5689 5692 5696 5699 5702 5705 5709 5711 5714 5718 5723 5726 5729 5733 5737 5741 5744 5746 5748 5750 5751 5753 5756 5759 5759 5760 5761 5761 5764 5770 5773 5776 5780 5778 5777 5782 5789 5794 5797 5801 5805 5808 5811 5814 5816 5817 5819 5822 5828 5834 5836 5837 5840 5842 5844 5846 5848 5850 5851 5852 5853 5854 5855 5855 5855